星链-2570 (STARLINK-2570 )

导读

STARLINK-2570是美国太空探索技术公司SpaceX星链低轨互联网星座中的卫星,于2021年5月4日发射升空。星链计划旨在搭建覆盖全球的低轨卫星网络,提供高速低时延的卫星宽带服务,同时具备潜在军事应用价值。该卫星属于星链星座早期组网部署阶段的卫星,助力实现全球网络覆盖,推动卫星互联网商业化落地,目前星链系统已累计发射数千颗卫星,服务全球数百万用户。

基本信息
目录编号:
48405
目录名称:
STARLINK-2570
国际标识:
2021-038BE
轨道中心:
EARTH
卫星名称:
星链-2570
卫星全名:
星链-2570 (STARLINK-2570 )
卫星状态:
在轨 (已飞行1949 天)
发射日期:
2021-05-04 UTC
国别 :
美国 (US)
星等 :
--
轨道信息
数据来源 国际轨道数据 AOE轨道数据
星历时间 2026-09-04T00:06:56+0800
15小时前
查看轨道信息
2026-09-03T23:00:00+0800
17小时前
查看轨道信息
半长轴 6848.869km 6848.89km
偏心率 0.0001376 0.0001353
轨道倾角 53.161° 53.158°
近地点辐角 77.651° 65.618°
升交点赤经 224.578° 224.796°
平近点角 282.465° 38.075°
近地点 469.789km 469.826km
远地点 471.675km 471.68km
周期 94.013分钟 94.013分钟
每日圈数 15.317027 15.316958
详细信息
固有亮度:
5
最大亮度:
2.5
卫星平台:
Starlink V1.0
覆盖范围:
全球
运营商:
太空探索技术公司
运营商所在国:
美国
制造商(研发单位):
太空探索技术公司
制造商所在国:
美国
使用方式:
暂无
卫星简介
星链(Starlink)计划是由太空探索技术公司(SpaceX)提出的一个巨型低轨卫星互联网星座项目,计划在2019年至2024年间在太空搭建由约1.2万颗卫星组成的“星链”网络,其中1584颗将部署在地球上空550千米处的近地轨道,并从2020年开始工作。该卫星仍在工作。
2D轨道图
3D轨道图
轨道高度分析图
轨道倾角分析图
轨道综合分析图
查看轨道综合分析图
交会数据列表
事件ID 空间交会对象 最接近时刻(TCA) 交会距离 交会风险概率(CRP) 交会风险指数(CRI) 操作
CDM_260828-010004-840506-602221
2026-08-28T
01:00:00+0000
1.941 km
极远距离
2.5905E-6 低风险 0.43
CDM_260906-084204-840506-760321
2026-09-06T
08:42:55+0000
2.704 km
极远距离
1.361649E-6 低风险 0.38
CDM_260904-170604-840506-812421
2026-09-04T
17:06:39+0000
2.796 km
极远距离
8.665508E-7 极低风险 0.34